Regional Weather Roundup
Issued by NWS Spokane, WA

Home | Current Version | Previous Version | Text Only | Print | Product List | Glossary On
Versions: 1 2 3 4 5 6 7 8 9 10 11 12 13 14 15 16 17 18 19 20 21 22 23 24 25 26 27 28 29 30 31 32 33 34 35 36 37 38 39 40 41 42 43 44 45 46 47 48 49 50
000
NZUS01 KOTX 301210
RWROTX
EASTERN WASHINGTON/NORTHERN IDAHO ROUNDUP
NATIONAL WEATHER SERVICE, SPOKANE WA
500 AM PDT MON MAY 30 2016

Note: "fair" indicated few or no clouds below 12,000 feet with no
significant weather and/or obstructions to visibility.

...NORTHEAST WASHINGTON AND NORTHERN IDAHO PANHANDLE...

CITY           SKY/WX    TMP DP  RH WIND       PRES   REMARKS
SPOKANE INTL   CLEAR     43  35  73 W9        30.16R
SPOKANE DOWNTO CLEAR     45  38  76 SW6       30.17R
COEUR D ALENE  CLEAR     43  36  75 CALM      30.14R
DEER PARK      CLEAR     34  33  96 MISG      30.17R
SANDPOINT      CLEAR     36  36 100 CALM      30.16R
BONNERS FERRY  FOG       39  39 100 CALM      30.17R VSB 1/4

...SOUTHEAST WASHINGTON AND SOUTHERN IDAHO PANHANDLE...

CITY           SKY/WX    TMP DP  RH WIND       PRES   REMARKS
WALLA WALLA    CLEAR     51  39  63 S7        30.20R
PULLMAN/MOSCOW CLEAR     46  37  71 W10       30.19R
LEWISTON       CLEAR     54  37  52 W9        30.16R
LOWELL           N/A     52  49  89 CALM      30.16R

...COLUMBIA BASIN...

CITY           SKY/WX    TMP DP  RH WIND       PRES   REMARKS
EPHRATA        CLEAR     49  32  52 NW5       30.19R
MOSES LAKE     CLEAR     48  32  53 W5        30.21R
TRI CITIES     CLEAR     43  39  86 CALM      30.22R
HERMISTON      CLEAR     42  38  85 CALM      30.21R
PENDLETON      MOCLDY    51  37  58 CALM      30.21R

...EAST SLOPES CASCADES...

CITY           SKY/WX    TMP DP  RH WIND       PRES   REMARKS
THE DALLES     CLEAR     52  43  71 VRB6      30.21R
YAKIMA         CLEAR     43  34  70 W8        30.23R
ELLENSBURG     CLEAR     42  31  64 CALM      30.22R
STAMPEDE PASS  FOG       36  34  92 SW5       30.23F VSB 1/2
WENATCHEE      CLEAR     50  35  56 NW12      30.22R
OMAK           CLEAR     41  33  73 NW7       30.22R

...SOUTHERN BRITISH COLUMBIA...

CITY           SKY/WX    TMP DP  RH WIND       PRES   REMARKS
PENTICTON      PTCLDY    39  36  87 VRB2      30.23R
CRANBROOK      PTCLDY    41  37  87 VRB3      30.13R

...WESTERN MONTANA...

CITY           SKY/WX    TMP DP  RH WIND       PRES   REMARKS
MISSOULA       PTCLDY    45  42  89 CALM      30.10R

...NEIGHBORING CITIES...

CITY           SKY/WX    TMP DP  RH WIND       PRES   REMARKS
SEATTLE        PTCLDY    50  43  77 NE8       30.29R
CALGARY        MOCLDY    43  37  81 NW17      30.06R



USA.gov is the U.S. government's official web portal to all federal, state and local government web resources and services.